COSMOS 2251 DEB, 35602

Orbit data source: Space-Track

COSMOS 2251 DEB, 35602 is space debris in LEO originally from a launch on Wed, 16 Jun 1993 UTC launched from the Plesetsk Missile And Space Complex (PKMTR). The debris from Iridium 33, an American commercial communications satellite, has been tracked extensively since its accidental collision with the defunct Russian satellite Cosmos 2251 in 2009. This event, occurring at high speed in low Earth orbit (LEO), generated thousands of pieces of space debris, significantly increasing the risk of further collisions. The Iridium 33 debris cloud has impacted space traffic management and orbital debris mitigation strategies, making it a subject of ongoing study in space situational awareness.

Loading next visibility...
Identifier
35602, 1993-036AMV
Orbit
LEO
Country
Flag of CISCIS
Related business
Manufacturer
Unknown
Mission
Spacecraft
Bus & Motor
Unknown
Mass
Unknown
Launch date (UTC)
1993-06-16 (33 years ago)
Launch vehicle
Unknown
Launch site
Plesetsk Missile And Space Complex (PKMTR)
Object type
Payload
Rocket body
Debris
Shape & HBR
Unknown shape, 0.1 m
Radar Cross Section
Medium (>0.1 m² and <1 m²)

Expand to show TLE details & history
Last TLE update: 1 week ago

TLE from 1 week ago
0 COSMOS 2251 DEB
1 35602U 93036AMV 26152.48441728  .00018945  00000-0  39016-3 0  9990
2 35602  73.9903 172.6173 0074313 194.2573 316.3878 15.42860758927184
Epoch: 2026-06-01T11:37Z
TLE epoch observation values (Epoch: 2026-06-01T11:37:33.652Z)
Latitude
28.73008°
Longitude
-80.74233°
Altitude
404.504 km
Speed
7.691 km/s
True Right ascension
22h 54m 28s
True Declination
28° 34' 40"
Sunlit
Object was in daylight at epoch
Visualization orbit readout
Latitude
Unknown
Longitude
Unknown
Altitude
Unknown
Speed
Unknown
Apparent Right ascension
Unknown
Apparent Declination
Unknown
Sunlit
N/A
Visualization observer readout
Local Sidereal Time
18:45:24
Azimuth
Unknown
Elevation
Unknown
Doppler factor
Unknown
Orbital elements
Apogee altitude
485.814 km
Perigee altitude
384.55 km
Semi-major axis
6,813.319 km
Eccentricity
0.00743
Inclination
73.9903°
RAAN
172.6173°
Arg. of periapsis
194.2573°
True anomaly
315.79645°
Mean anomaly
316.3878°
Eccentric anomaly
316.09252°
Mean motion
3.85927 °/min
Orbital period
93.28 mins
BSTAR
0.00039016
Loading maneuver chart data...
Computing Atmospheric mass density...

Documentation

Showing up to 5 results
|